sat.trackr.live / text

‹ back to catalog

STARLINK-35922

NORAD 66502 · 2025-263T

PAYLOAD ACTIVE UNKNOWN

§ Identity

Operator
Country
US
Launch date
2025-11-15
Launch site
AFETR
Launch vehicle
Mass (kg)
RCS (m²)

Purposes: comms

External: N2YO · Heavens-Above · Gunter

§ Orbital elements

Epoch: 2026-05-24T17:19:31.950048Z

Period
94.27 min
Inclination
42.9998°
Eccentricity
0.0001422
Mean motion
15.27588191 rev/d
Perigee alt
482.0 km
Apogee alt
484.0 km
Semi-major
6,861.2 km
B*
5.6086e-4
RAAN
281.5989°
Arg perigee
273.7166°
Mean anomaly
86.3523°
Rev number
3,052

§ Raw data

STARLINK-359221 66502U 25263T   26144.72189757  .00015207  00000+0  56086-3 0  99922 66502  42.9998 281.5989 0001422 273.7166  86.3523 15.27588191 30529

JSON: /api/v1/satellites/66502 · /tle

For live sub-satellite position, see the globe view (requires WebGL).

§ Visibility from observer

Set your observer location to see the next 7 days of passes ≥ 10°. The values pass through the URL so the page stays shareable.

No JS? Fill the form by hand. The geolocation button needs JavaScript.